Lid_Strength_Index
6 6 7 6 6 3 2 2 2 1 2 2 2 2 2 1 1 0 1 0 0 0 2 2 0 1 2 2 2 2 3 4 3 3 5 3 3 3 2 1 2 2 1
7 6 7 8 7 5 2 2 2 2 2 1 1 1 1 1 1 1 1 1 0 1 1 0 1 2 2 2 2 2 3 4 3 5 4 6 4 4 2 3 2 3 3
8 7 6 7 8 7 3 2 2 2 1 1 2 1 1 1 2 1 2 1 0 1 0 0 2 2 2 2 3 3 3 4 3 3 4 6 7 5 4 5 5 5 5
6 7 6 6 7 8 3 2 2 2 2 1 2 2 3 3 2 2 1 1 1 0 0 1 1 2 2 3 3 3 3 3 4 3 3 3 4 6 6 5 6 6 6
6 6 6 6 5 5 6 2 2 2 2 2 2 2 2 2 2 2 2 1 1 0 0 1 2 2 3 4 4 4 3 3 4 4 4 6 6 5 7 8 8 7 7
7 7 6 6 6 5 5 2 2 2 2 2 2 2 2 2 2 2 2 2 1 1 1 2 2 3 4 3 3 3 4 5 5 5 5 7 8 7 8 9 9 9 8
7 6 5 6 6 6 5 3 3 3 2 2 2 2 2 2 2 2 2 2 2 2 2 3 3 4 4 3 3 4 5 5 6 6 8 7 7 7 7 9 10 10 9
6 5 5 5 5 5 6 3 3 3 2 2 2 2 2 2 2 2 2 2 2 1 3 3 4 4 4 4 4 5 6 7 7 8 7 7 7 7 8 9 10 11 10
6 5 4 5 4 4 5 3 3 3 2 2 2 2 2 2 2 2 1 1 1 2 4 4 4 4 5 5 5 6 7 7 8 8 7 7 8 8 8 9 9 10 13
6 5 5 4 4 4 4 2 3 3 2 2 2 2 2 2 1 2 2 1 1 2 4 4 5 5 6 6 6 7 7 8 7 8 8 9 10 10 11 11 12 12 12
6 6 4 4 3 4 4 3 3 3 3 2 2 2 2 2 1 2 1 1 2 3 4 4 5 6 7 6 8 8 8 8 9 9 10 11 12 12 13 13 14 14 14
6 5 4 4 4 5 5 4 3 3 3 2 2 2 2 2 2 2 2 2 3 3 3 5 5 6 6 8 8 7 8 10 11 11 12 12 11 14 14 15 14 14 14
6 5 5 4 4 4 4 4 4 3 3 2 2 2 2 2 2 2 3 3 3 4 5 5 5 6 7 8 7 9 9 10 11 12 13 13 13 14 14 14 14 13 13
7 6 5 5 4 4 4 4 3 3 3 3 3 3 2 2 2 3 3 4 4 5 6 6 6 7 7 7 8 10 11 12 12 13 13 13 13 13 13 13 13 13 14
8 7 7 5 5 4 4 4 3 3 3 3 3 3 2 2 3 4 4 4 5 5 5 6 7 7 7 8 9 11 12 13 13 14 13 12 10 9 10 12 13 13 15
8 7 7 5 5 4 4 4 4 3 3 3 3 2 2 3 4 5 6 6 6 7 6 6 7 7 7 9 9 10 12 13 14 16 16 14 13 12 9 9 8 11 14
7 7 6 6 4 4 4 5 4 3 4 3 3 3 3 5 6 6 8 8 8 8 7 8 8 10 11 11 11 11 14 16 17 17 17 15 14 14 14 12 11 11 8
8 8 7 5 4 4 4 4 5 3 4 4 4 4 4 7 9 9 10 10 10 9 9 10 11 12 12 12 13 12 15 16 16 17 18 17 16 13 14 14 14 13 12
8 7 8 6 4 4 4 4 4 3 4 7 7 5 6 9 10 10 10 11 10 10 10 11 12 13 14 13 14 15 16 16 16 16 17 16 16 12 12 14 14 13 12
8 8 6 4 4 4 3 4 4 4 4 6 6 8 9 10 11 11 10 12 11 12 12 12 13 13 15 13 13 15 15 17 17 17 16 12 14 12 11 14 15 14 13
9 7 4 5 5 4 3 4 4 6 7 7 7 9 10 11 11 11 12 11 12 13 13 14 13 13 13 12 12 13 15 15 16 16 15 15 11 11 11 11 13 13 12
5 5 5 6 6 6 5 6 7 7 8 8 9 10 10 10 11 11 12 12 13 14 14 15 15 13 12 11 12 13 13 13 15 15 15 14 10 10 10 11 11 10 11
6 7 7 8 7 7 6 7 6 7 8 9 10 11 11 11 11 12 13 14 14 15 15 15 15 15 13 13 12 12 12 11 14 13 10 10 11 11 11 10 10 10 12
7 7 8 9 9 8 8 7 8 9 9 10 11 11 12 12 12 13 13 14 15 15 15 15 15 15 15 14 14 14 14 11 11 10 11 10 11 10 11 12 11 12 11
7 8 8 9 9 9 9 8 9 9 10 11 11 12 13 13 14 14 14 14 14 13 14 15 14 14 15 16 14 13 13 13 12 12 13 14 14 14 14 13 12 13 12
8 9 9 9 10 11 11 10 10 11 12 13 13 14 14 14 14 14 14 14 13 14 15 15 15 15 14 12 11 11 11 11 11 14 15 15 14 14 14 14 14 13 13